Location: Vancouver
(49.2500°N, 123.1330°W)
Time: 06:21:20
(UTC-08:00)

BREEZE-M DEB (TANK) - Visible Passes

Search period start: 29 January 2015 00:00
Search period end: 08 February 2015 00:00
Orbit: 284 x 13590 km, 49.6° (Epoch: 26 January)

Date Brightness Start Highest point End Pass type
(mag) Time Alt. Az. Time Alt. Az. Time Alt. Az.
31 Jan 1.7 19:00:45 10° W 19:03:03 56° WNW 19:03:03 56° WNW visible
02 Feb 1.7 17:39:31 10° WSW 17:43:49 74° SSE 17:46:00 10° E visible
03 Feb 2.6 19:13:26 10° W 19:15:08 37° W 19:15:08 37° W visible
05 Feb 1.4 17:52:19 10° W 17:56:03 88° NNW 17:58:07 10° E visible
06 Feb 3.3 19:25:44 10° W 19:26:58 27° W 19:26:58 27° W visible
